Precipitable_Water
1.58 1.53 1.45 1.42 1.33 1.27 1.24 1.26 1.28 1.31 1.33 1.37 1.36 1.36 1.39 1.44 1.49 1.57 1.61 1.53 1.43 1.41 1.45 1.48 1.49 1.48 1.42 1.44 1.59 1.61 1.67 1.65 1.66 1.64 1.62 1.68 1.74 1.72 1.68 1.74 1.71 1.69 1.75 1.69 1.70 1.74 1.78 1.84 1.80 1.78 1.83 1.73 1.72 1.68 1.63 1.62 1.62 1.66 1.65 1.65 1.55 1.61 1.60
1.50 1.52 1.52 1.47 1.41 1.39 1.31 1.31 1.31 1.31 1.32 1.37 1.39 1.36 1.38 1.41 1.50 1.52 1.56 1.50 1.44 1.42 1.41 1.44 1.48 1.52 1.47 1.50 1.51 1.56 1.69 1.70 1.65 1.66 1.71 1.74 1.76 1.75 1.79 1.70 1.69 1.73 1.73 1.77 1.80 1.89 1.80 1.80 1.78 1.78 1.82 1.79 1.76 1.71 1.71 1.68 1.65 1.67 1.73 1.64 1.59 1.61 1.58
1.50 1.49 1.50 1.55 1.48 1.46 1.44 1.42 1.38 1.35 1.34 1.37 1.37 1.34 1.35 1.38 1.42 1.48 1.51 1.50 1.45 1.41 1.42 1.41 1.44 1.48 1.53 1.57 1.52 1.49 1.57 1.64 1.60 1.59 1.63 1.67 1.70 1.80 1.74 1.74 1.71 1.77 1.81 1.74 1.83 1.87 1.89 1.75 1.85 1.81 1.80 1.81 1.77 1.80 1.68 1.72 1.69 1.69 1.75 1.74 1.66 1.67 1.57
1.47 1.51 1.55 1.60 1.57 1.54 1.53 1.51 1.46 1.43 1.39 1.40 1.39 1.35 1.36 1.40 1.40 1.48 1.49 1.48 1.41 1.40 1.39 1.39 1.39 1.44 1.51 1.55 1.55 1.56 1.52 1.58 1.60 1.65 1.61 1.64 1.68 1.72 1.69 1.69 1.71 1.70 1.70 1.66 1.82 1.74 1.81 1.84 1.78 1.82 1.78 1.75 1.80 1.85 1.80 1.76 1.73 1.71 1.72 1.73 1.62 1.66 1.66
1.52 1.57 1.60 1.63 1.61 1.62 1.58 1.56 1.53 1.50 1.48 1.48 1.46 1.41 1.40 1.44 1.45 1.48 1.48 1.50 1.47 1.40 1.42 1.40 1.39 1.43 1.52 1.56 1.58 1.62 1.53 1.52 1.55 1.61 1.61 1.67 1.66 1.67 1.67 1.73 1.68 1.60 1.72 1.74 1.75 1.74 1.77 1.80 1.88 1.82 1.71 1.69 1.76 1.78 1.78 1.70 1.69 1.71 1.75 1.73 1.65 1.71 1.65
1.51 1.56 1.60 1.70 1.65 1.63 1.64 1.65 1.61 1.57 1.56 1.55 1.49 1.48 1.48 1.47 1.47 1.45 1.46 1.45 1.44 1.45 1.44 1.44 1.40 1.43 1.43 1.51 1.53 1.53 1.54 1.52 1.53 1.56 1.55 1.57 1.55 1.59 1.67 1.69 1.62 1.63 1.65 1.71 1.73 1.70 1.71 1.73 1.75 1.79 1.75 1.73 1.68 1.75 1.73 1.81 1.72 1.67 1.69 1.67 1.63 1.63 1.69
1.52 1.55 1.54 1.63 1.71 1.69 1.74 1.67 1.64 1.66 1.65 1.68 1.64 1.58 1.55 1.52 1.48 1.50 1.53 1.53 1.46 1.38 1.37 1.37 1.40 1.41 1.44 1.50 1.47 1.52 1.53 1.51 1.52 1.51 1.52 1.53 1.56 1.53 1.60 1.67 1.63 1.62 1.56 1.67 1.67 1.72 1.70 1.69 1.61 1.71 1.75 1.78 1.77 1.74 1.81 1.78 1.76 1.77 1.78 1.68 1.59 1.62 1.70
1.55 1.55 1.60 1.63 1.71 1.78 1.79 1.76 1.72 1.73 1.73 1.75 1.78 1.67 1.56 1.57 1.57 1.63 1.60 1.61 1.51 1.47 1.44 1.38 1.38 1.36 1.41 1.46 1.46 1.48 1.58 1.62 1.56 1.53 1.48 1.45 1.50 1.51 1.56 1.63 1.56 1.56 1.60 1.57 1.57 1.64 1.63 1.70 1.66 1.59 1.74 1.68 1.74 1.73 1.73 1.82 1.82 1.69 1.74 1.70 1.66 1.61 1.64
1.56 1.61 1.67 1.72 1.75 1.86 1.81 1.85 1.91 1.82 1.83 1.87 1.76 1.71 1.64 1.63 1.71 1.71 1.66 1.71 1.63 1.53 1.50 1.49 1.47 1.46 1.43 1.42 1.45 1.49 1.59 1.58 1.57 1.59 1.52 1.42 1.39 1.42 1.46 1.51 1.56 1.56 1.52 1.51 1.56 1.61 1.57 1.69 1.72 1.64 1.65 1.64 1.68 1.68 1.71 1.75 1.77 1.77 1.70 1.73 1.71 1.68 1.66
1.50 1.63 1.71 1.79 1.80 1.86 1.80 1.83 1.88 1.86 1.82 1.83 1.86 1.68 1.79 1.93 1.90 1.81 1.73 1.72 1.71 1.64 1.70 1.66 1.61 1.54 1.48 1.42 1.42 1.45 1.50 1.53 1.55 1.57 1.52 1.51 1.49 1.40 1.41 1.43 1.49 1.59 1.54 1.53 1.54 1.58 1.67 1.61 1.59 1.62 1.62 1.61 1.60 1.66 1.64 1.69 1.73 1.73 1.71 1.68 1.69 1.67 1.71
1.50 1.58 1.64 1.77 1.83 1.83 1.83 1.81 1.85 1.85 1.87 1.87 1.79 1.67 1.61 1.79 1.91 1.87 1.85 1.72 1.77 1.69 1.83 1.95 1.70 1.60 1.53 1.46 1.42 1.40 1.40 1.41 1.44 1.45 1.47 1.54 1.56 1.46 1.46 1.44 1.43 1.45 1.48 1.52 1.52 1.52 1.56 1.59 1.62 1.63 1.65 1.60 1.55 1.56 1.68 1.65 1.67 1.64 1.64 1.72 1.77 1.76 1.71
1.52 1.58 1.57 1.64 1.73 1.72 1.66 1.74 1.82 1.80 1.84 1.84 1.79 1.77 1.76 1.79 1.90 1.91 1.81 1.69 1.70 1.72 1.89 2.05 1.84 1.66 1.60 1.52 1.44 1.42 1.39 1.39 1.38 1.34 1.35 1.38 1.41 1.43 1.43 1.44 1.44 1.46 1.48 1.47 1.49 1.53 1.52 1.50 1.56 1.58 1.63 1.67 1.63 1.59 1.59 1.61 1.57 1.59 1.59 1.64 1.69 1.77 1.75
1.56 1.56 1.57 1.58 1.67 1.73 1.72 1.74 1.80 1.79 1.85 1.82 1.79 1.71 1.64 1.68 1.76 1.74 1.66 1.59 1.74 1.87 1.93 1.86 1.88 1.82 1.70 1.61 1.54 1.49 1.45 1.42 1.40 1.39 1.37 1.37 1.37 1.37 1.33 1.35 1.40 1.44 1.47 1.53 1.52 1.53 1.54 1.49 1.51 1.59 1.63 1.72 1.68 1.61 1.60 1.62 1.61 1.58 1.60 1.60 1.63 1.68 1.73
1.62 1.63 1.62 1.63 1.61 1.65 1.61 1.66 1.78 1.82 1.85 1.85 1.82 1.78 1.71 1.71 1.74 1.76 1.73 1.73 1.85 1.92 1.87 1.84 1.86 1.84 1.73 1.65 1.66 1.63 1.58 1.55 1.53 1.52 1.53 1.50 1.45 1.43 1.39 1.37 1.39 1.43 1.49 1.52 1.55 1.55 1.53 1.53 1.49 1.54 1.59 1.68 1.72 1.68 1.65 1.67 1.68 1.66 1.63 1.66 1.66 1.66 1.70
1.54 1.56 1.59 1.60 1.59 1.59 1.62 1.64 1.68 1.78 1.78 1.92 1.94 1.86 1.82 1.82 1.82 1.84 1.81 1.75 1.76 1.79 1.80 1.82 1.71 1.72 1.70 1.65 1.60 1.62 1.64 1.65 1.71 1.70 1.65 1.61 1.59 1.55 1.52 1.45 1.41 1.41 1.44 1.48 1.51 1.54 1.58 1.58 1.55 1.51 1.55 1.65 1.71 1.71 1.69 1.70 1.74 1.73 1.68 1.68 1.66 1.65 1.68
1.45 1.46 1.54 1.56 1.62 1.63 1.63 1.66 1.67 1.68 1.71 1.77 1.77 1.78 1.82 1.87 1.94 1.92 1.92 1.87 1.84 1.79 1.88 1.88 1.82 1.77 1.76 1.73 1.72 1.72 1.74 1.73 1.75 1.72 1.71 1.70 1.70 1.72 1.71 1.68 1.64 1.56 1.54 1.57 1.59 1.59 1.58 1.62 1.63 1.60 1.58 1.60 1.65 1.67 1.71 1.65 1.66 1.65 1.64 1.62 1.74 1.76 1.71
1.38 1.48 1.51 1.56 1.55 1.56 1.62 1.64 1.66 1.66 1.66 1.67 1.70 1.74 1.78 1.84 1.93 2.00 1.98 1.98 1.92 1.88 1.96 1.98 1.93 1.90 1.86 1.84 1.87 1.87 1.85 1.82 1.81 1.83 1.82 1.88 1.91 1.95 1.96 1.96 1.94 1.89 1.82 1.78 1.75 1.70 1.69 1.72 1.68 1.72 1.76 1.66 1.58 1.65 1.78 1.81 1.71 1.62 1.60 1.62 1.65 1.66 1.71
1.46 1.48 1.51 1.62 1.53 1.59 1.58 1.59 1.64 1.62 1.62 1.64 1.67 1.75 1.82 1.86 1.88 1.87 1.85 1.90 1.93 1.97 1.96 1.93 1.91 1.94 1.95 1.95 1.95 1.94 1.93 1.92 1.91 1.88 1.86 1.89 1.95 2.01 2.06 2.08 2.07 2.04 2.01 1.98 1.97 1.98 1.95 1.86 1.84 1.90 1.90 1.84 1.82 1.84 1.92 1.93 1.95 1.76 1.66 1.65 1.63 1.65 1.68
1.42 1.44 1.48 1.54 1.59 1.60 1.61 1.65 1.66 1.63 1.61 1.64 1.65 1.71 1.81 1.87 1.86 1.84 1.88 1.92 1.97 1.99 1.93 1.85 1.82 1.80 1.80 1.92 1.98 2.01 2.01 2.03 2.03 1.99 1.99 1.96 1.98 2.02 2.02 2.01 1.99 2.00 2.03 2.03 2.06 2.09 2.04 1.99 1.98 2.02 1.99 1.92 1.82 1.85 1.95 2.00 1.97 1.91 1.78 1.71 1.63 1.60 1.61
1.43 1.52 1.56 1.59 1.61 1.61 1.61 1.60 1.60 1.62 1.60 1.62 1.69 1.72 1.72 1.72 1.69 1.76 1.85 1.88 1.91 1.90 1.89 1.88 1.86 1.88 1.89 1.89 1.94 2.02 2.03 2.01 2.03 2.02 2.02 1.99 2.00 2.03 2.03 2.01 2.01 2.03 2.04 2.05 2.07 2.07 2.07 2.07 2.05 2.07 2.02 1.96 1.88 1.78 1.84 2.00 2.08 2.00 1.87 1.77 1.72 1.67 1.63
1.28 1.42 1.44 1.53 1.55 1.58 1.59 1.58 1.59 1.60 1.60 1.61 1.62 1.63 1.65 1.65 1.69 1.73 1.77 1.81 1.83 1.86 1.86 1.89 1.91 1.94 2.00 2.03 2.04 2.06 2.09 2.08 2.07 2.07 2.11 2.14 2.11 2.11 2.10 2.10 2.09 2.08 2.09 2.10 2.09 2.07 2.07 2.08 2.09 2.09 2.08 2.06 2.03 1.96 1.89 1.94 2.06 2.05 1.93 1.85 1.79 1.76 1.72
1.48 1.41 1.42 1.49 1.51 1.54 1.55 1.56 1.59 1.61 1.62 1.66 1.63 1.62 1.63 1.62 1.68 1.69 1.70 1.75 1.74 1.77 1.83 1.87 1.89 1.88 1.93 1.97 2.02 2.04 2.07 2.09 2.11 2.10 2.11 2.15 2.15 2.14 2.12 2.12 2.12 2.10 2.14 2.16 2.18 2.20 2.22 2.20 2.16 2.06 2.03 2.07 2.07 2.04 2.00 1.95 1.99 2.05 2.03 1.99 1.90 1.85 1.84
1.53 1.51 1.48 1.50 1.52 1.51 1.55 1.59 1.61 1.65 1.68 1.68 1.67 1.64 1.64 1.69 1.74 1.74 1.73 1.71 1.73 1.74 1.75 1.78 1.81 1.83 1.86 1.92 1.97 2.01 2.04 2.05 2.03 2.03 2.04 2.06 2.07 2.08 2.11 2.11 2.12 2.13 2.18 2.16 2.17 2.14 2.12 2.12 2.15 2.16 2.10 2.07 2.09 2.10 2.02 2.02 2.03 2.04 2.06 2.03 1.96 1.87 1.86
1.46 1.47 1.45 1.48 1.57 1.59 1.58 1.56 1.59 1.65 1.69 1.69 1.70 1.68 1.69 1.70 1.69 1.67 1.64 1.63 1.64 1.65 1.66 1.67 1.68 1.73 1.78 1.83 1.90 1.94 1.98 2.02 2.03 2.02 2.00 2.00 1.98 1.98 2.03 2.10 2.11 2.12 2.17 2.11 2.10 2.11 2.17 2.19 2.18 2.17 2.17 2.18 2.15 2.15 2.10 2.04 1.99 1.98 2.00 2.03 2.01 1.93 1.83
1.41 1.42 1.44 1.46 1.44 1.43 1.50 1.56 1.59 1.59 1.61 1.62 1.61 1.63 1.62 1.62 1.59 1.55 1.52 1.55 1.57 1.58 1.56 1.56 1.59 1.63 1.69 1.75 1.83 1.88 1.91 1.94 1.99 1.99 1.95 1.92 1.91 1.94 2.00 2.05 2.09 2.13 2.13 2.10 2.13 2.14 2.17 2.20 2.14 2.13 2.15 2.17 2.16 2.19 2.15 2.06 1.99 1.96 1.96 1.97 1.96 1.94 1.91
1.33 1.33 1.32 1.34 1.38 1.41 1.43 1.47 1.50 1.51 1.51 1.49 1.49 1.50 1.49 1.49 1.46 1.42 1.40 1.42 1.46 1.46 1.47 1.50 1.52 1.58 1.65 1.71 1.79 1.87 1.89 1.90 1.88 1.89 1.87 1.87 1.90 1.96 1.94 2.02 2.09 2.10 2.10 2.10 2.10 2.08 2.10 2.12 2.16 2.13 2.13 2.18 2.14 2.11 2.09 2.03 2.00 1.98 1.94 1.91 1.91 1.95 1.99
1.37 1.39 1.38 1.38 1.34 1.36 1.36 1.41 1.39 1.36 1.39 1.40 1.44 1.45 1.43 1.38 1.31 1.24 1.23 1.24 1.28 1.31 1.39 1.48 1.53 1.57 1.60 1.64 1.67 1.69 1.72 1.77 1.83 1.85 1.87 1.87 1.84 1.87 1.90 1.95 1.98 2.00 2.01 2.01 2.01 2.02 2.03 2.13 2.31 2.33 2.21 2.10 2.12 2.12 2.10 2.06 2.01 1.99 1.93 1.87 1.87 1.93 1.95
1.29 1.29 1.30 1.33 1.37 1.32 1.25 1.22 1.23 1.28 1.32 1.37 1.33 1.28 1.25 1.22 1.20 1.16 1.09 1.08 1.14 1.27 1.38 1.42 1.45 1.47 1.45 1.43 1.45 1.49 1.58 1.64 1.73 1.80 1.82 1.83 1.82 1.80 1.77 1.82 1.85 1.89 1.88 1.83 1.86 1.90 1.94 1.96 2.13 2.20 2.10 2.06 2.06 2.02 1.96 2.00 1.97 1.92 1.88 1.85 1.86 1.86 1.87
1.16 1.16 1.15 1.16 1.16 1.22 1.23 1.19 1.17 1.19 1.22 1.27 1.26 1.20 1.16 1.13 1.12 1.16 1.16 1.11 1.10 1.11 1.16 1.24 1.32 1.39 1.42 1.41 1.40 1.42 1.46 1.52 1.52 1.53 1.62 1.73 1.79 1.74 1.74 1.74 1.72 1.74 1.78 1.73 1.66 1.75 1.80 1.83 1.91 1.95 1.97 1.93 1.92 1.88 1.85 1.86 1.84 1.84 1.84 1.84 1.83 1.82 1.79
1.17 1.16 1.16 1.15 1.16 1.17 1.19 1.18 1.16 1.13 1.17 1.17 1.13 1.14 1.15 1.13 1.09 1.08 1.06 1.06 1.11 1.09 1.08 1.10 1.12 1.12 1.17 1.29 1.35 1.40 1.41 1.40 1.40 1.43 1.41 1.48 1.53 1.52 1.55 1.65 1.70 1.72 1.70 1.65 1.68 1.70 1.66 1.61 1.69 1.75 1.79 1.81 1.81 1.80 1.78 1.75 1.77 1.80 1.80 1.79 1.79 1.76 1.76
1.12 1.11 1.09 1.09 1.09 1.14 1.14 1.12 1.12 1.11 1.06 1.03 1.00 1.01 1.03 1.02 0.97 0.94 0.94 1.02 1.08 1.07 1.08 1.10 1.11 1.07 1.04 1.06 1.09 1.12 1.24 1.31 1.32 1.32 1.29 1.25 1.27 1.31 1.36 1.41 1.42 1.45 1.51 1.57 1.59 1.55 1.59 1.66 1.64 1.64 1.67 1.74 1.71 1.72 1.73 1.70 1.72 1.75 1.78 1.76 1.75 1.76 1.78
1.16 1.14 1.10 1.08 1.08 1.08 1.09 1.05 1.05 1.05 0.96 0.92 0.91 0.92 0.96 1.00 0.99 0.91 0.91 0.95 0.97 1.01 1.04 1.03 0.99 0.97 0.95 0.95 0.97 1.03 1.06 1.08 1.07 1.06 1.17 1.25 1.21 1.12 1.12 1.14 1.21 1.27 1.37 1.47 1.48 1.50 1.54 1.55 1.57 1.59 1.63 1.61 1.63 1.65 1.65 1.62 1.65 1.64 1.63 1.63 1.63 1.62 1.62
1.16 1.15 1.10 1.08 1.08 1.06 1.01 1.02 1.00 0.92 0.90 0.91 0.99 1.00 0.97 0.94 0.94 0.94 0.94 0.92 0.94 0.98 0.97 0.96 0.94 0.91 0.92 0.91 0.91 0.84 0.85 0.87 0.94 0.99 1.00 1.05 1.15 1.19 1.16 1.18 1.16 1.10 1.11 1.20 1.27 1.34 1.40 1.45 1.53 1.55 1.55 1.62 1.63 1.59 1.58 1.51 1.49 1.43 1.42 1.41 1.38 1.34 1.33
1.12 1.15 1.15 1.13 1.10 1.06 1.03 1.02 0.97 0.94 0.94 0.92 0.94 0.93 0.90 0.89 0.90 0.97 1.01 1.00 0.98 0.95 1.01 1.02 1.04 1.04 0.99 1.01 1.02 0.97 0.93 0.85 0.89 0.96 0.92 0.87 1.00 1.02 1.02 1.03 1.09 1.11 1.14 1.15 1.14 1.17 1.22 1.31 1.34 1.36 1.46 1.49 1.50 1.53 1.48 1.38 1.39 1.36 1.34 1.29 1.23 1.18 1.08
1.10 1.14 1.15 1.10 1.05 1.05 1.01 0.97 0.92 0.92 0.91 0.92 0.95 0.94 0.91 0.91 0.94 0.97 0.96 0.90 0.90 0.91 0.89 0.90 0.96 0.99 1.00 1.01 0.94 0.82 0.95 0.97 0.92 0.93 0.94 0.99 0.94 0.96 0.96 0.96 0.98 0.98 0.94 0.95 0.99 1.04 1.11 1.20 1.22 1.26 1.31 1.35 1.36 1.43 1.38 1.30 1.24 1.23 1.22 1.18 1.13 1.05 0.91
1.08 1.09 1.08 1.05 1.01 1.01 0.97 0.93 0.90 0.88 0.89 0.92 0.96 0.96 0.95 0.92 0.90 0.93 0.92 0.90 0.87 0.90 0.85 0.88 0.92 0.95 0.97 0.97 0.94 0.92 0.93 0.97 0.92 0.84 0.86 0.94 0.98 0.99 0.95 0.88 0.88 0.99 0.95 0.87 0.83 0.79 0.85 0.93 1.00 0.97 1.05 1.11 1.20 1.30 1.21 1.18 1.17 1.16 1.11 1.08 1.01 0.89 0.79
1.03 1.04 1.03 1.02 0.99 0.98 0.93 0.90 0.89 0.88 0.87 0.92 0.95 0.95 0.94 0.93 0.98 0.99 0.97 0.94 0.93 0.92 0.92 0.97 0.95 0.96 0.95 0.87 0.85 0.81 0.85 0.88 0.86 0.82 0.77 0.84 0.87 0.88 0.82 0.80 0.83 0.75 0.71 0.70 0.69 0.66 0.65 0.68 0.70 0.75 0.82 0.90 0.91 0.97 1.03 1.02 0.97 0.91 0.88 0.83 0.78 0.74 0.71
1.07 1.09 1.07 1.05 1.01 1.00 0.96 0.92 0.90 0.87 0.86 0.87 0.90 0.90 0.92 0.95 0.99 1.00 0.97 0.93 0.95 0.92 0.90 0.94 0.94 0.97 0.98 0.97 0.87 0.79 0.81 0.91 0.86 0.82 0.89 0.85 0.75 0.79 0.74 0.80 0.80 0.87 0.94 0.94 0.84 0.74 0.65 0.65 0.65 0.68 0.69 0.75 0.78 0.77 0.75 0.78 0.78 0.76 0.73 0.71 0.69 0.66 0.65
Wind_Speed
24 25 24 24 23 23 22 21 21 21 20 20 20 20 19 18 17 17 17 16 16 16 15 15 14 14 14 13 12 11 11 10 10 9 9 8 7 7 7 6 6 5 5 4 4 4 4 4 4 4 3 3 3 3 3 3 3 3 3 3 4 3 3
23 24 24 24 24 23 23 22 22 21 21 20 20 20 19 18 18 17 17 17 16 16 16 16 15 14 14 14 13 12 12 11 10 10 9 9 8 7 7 7 6 6 5 5 5 5 4 4 5 4 4 4 3 3 3 3 3 3 3 3 3 3 3
23 24 24 23 23 23 23 23 23 22 21 21 20 20 19 19 18 18 17 17 17 17 16 16 16 15 15 14 14 13 13 12 11 11 10 10 9 9 8 7 7 7 6 6 5 5 5 5 5 5 4 4 4 4 3 3 3 3 3 3 3 3 3
22 24 25 24 23 23 23 23 23 22 22 21 21 20 19 19 19 18 18 18 18 17 17 17 16 16 15 15 14 14 13 13 12 12 11 10 10 9 9 9 8 8 7 7 6 6 5 5 5 5 5 5 4 4 4 4 4 4 4 3 3 3 4
22 22 23 23 23 23 22 23 23 23 23 22 21 20 19 19 19 18 18 18 18 18 17 17 17 16 16 16 15 14 14 14 13 12 12 11 10 10 10 10 9 9 8 8 7 7 6 6 6 6 6 5 5 5 5 5 4 4 4 4 4 4 4
20 20 20 21 23 23 24 24 24 23 23 22 21 20 20 19 19 19 18 18 18 18 18 17 17 16 16 16 15 15 15 14 14 13 13 12 11 11 11 10 10 9 9 9 8 8 8 7 7 7 6 6 6 6 6 5 5 5 5 4 4 4 4
19 19 20 21 22 23 24 24 24 24 23 22 22 21 20 20 19 19 19 18 18 18 18 17 17 16 16 16 15 15 15 15 15 15 14 13 13 12 12 11 11 10 10 10 9 9 9 8 8 8 8 7 7 7 6 6 6 5 5 5 5 5 5
18 18 20 22 22 22 23 22 23 23 23 22 22 21 20 20 20 20 19 18 18 18 17 17 17 16 16 15 15 15 15 15 15 15 15 14 14 13 13 12 12 11 10 10 10 10 10 10 9 9 9 9 8 8 7 7 7 7 6 6 6 6 5
16 16 18 20 20 21 22 20 19 21 23 22 21 20 19 19 19 20 19 18 18 18 17 17 16 16 16 16 15 15 15 15 15 15 16 15 15 14 14 13 13 12 11 11 11 11 10 10 10 10 10 10 9 9 9 8 8 8 8 7 7 7 6
15 15 14 16 17 19 22 21 18 19 22 22 20 19 19 18 18 19 19 18 18 17 17 17 17 16 16 16 16 16 15 15 16 16 16 16 15 15 15 14 14 13 13 12 12 11 11 11 11 11 11 11 11 10 10 10 10 9 9 9 8 8 8
14 13 13 14 16 17 19 21 19 18 20 22 21 20 20 20 18 18 19 19 18 17 17 18 17 16 16 16 16 16 16 16 16 16 16 16 16 16 15 15 15 15 14 14 14 13 12 12 12 11 12 12 12 12 11 11 11 11 10 10 10 9 9
14 13 12 14 16 16 17 19 19 19 19 21 23 21 20 20 20 19 19 19 18 18 19 18 17 17 17 17 17 17 16 16 16 16 16 16 16 16 16 16 16 16 15 15 15 14 14 14 13 12 12 13 13 13 13 13 12 12 12 11 11 11 10
14 13 13 13 15 16 16 17 18 18 18 20 22 22 21 21 21 20 20 19 19 19 19 18 18 18 18 17 17 17 17 17 17 16 16 16 16 16 16 16 16 16 15 15 15 15 15 15 14 14 14 14 13 14 14 14 14 13 13 13 12 12 12
14 14 13 13 15 16 16 17 17 18 18 19 20 21 21 21 21 20 20 20 20 19 20 19 19 19 18 18 18 18 18 18 17 17 17 16 16 17 17 17 16 16 15 15 15 15 15 15 15 15 15 15 15 14 14 14 14 14 14 14 14 13 13
15 15 14 13 14 15 16 17 17 17 17 18 18 19 19 21 21 21 20 21 21 21 21 21 20 20 19 19 19 19 19 19 18 18 18 17 17 17 17 17 17 17 16 15 15 15 15 15 16 16 16 16 16 16 15 15 15 15 15 15 15 14 14
15 14 14 13 13 14 15 16 16 16 17 17 18 18 19 20 21 22 22 21 21 22 22 21 21 21 21 21 20 20 20 20 19 19 18 18 18 17 17 17 17 17 17 16 16 16 15 15 16 16 16 16 16 17 17 16 16 16 16 16 16 15 15
14 13 12 13 13 13 14 14 14 15 15 16 17 18 19 20 21 23 24 23 22 23 22 22 22 22 23 23 22 22 21 21 21 20 20 20 19 19 19 19 18 18 18 18 18 18 17 17 17 17 17 17 17 17 17 17 17 16 16 16 16 16 16
10 10 10 11 12 12 13 13 13 13 13 13 14 15 18 19 20 22 23 23 23 24 24 24 24 24 25 25 25 24 23 22 22 22 22 21 21 21 21 21 21 21 20 21 20 20 20 19 19 19 18 17 17 16 16 17 17 17 16 16 16 16 17
9 9 9 9 9 10 10 11 11 11 11 11 11 12 13 15 16 18 19 20 21 22 23 23 24 25 26 26 26 25 24 24 24 24 23 23 23 23 23 23 23 23 23 23 22 22 21 22 21 21 20 19 19 17 17 17 18 17 17 17 17 17 17
10 8 8 9 9 9 10 10 10 10 10 10 10 11 12 12 13 14 15 16 17 18 20 21 21 22 24 26 26 26 26 26 25 25 25 25 25 25 25 25 25 24 24 25 25 24 24 24 23 23 22 21 21 20 19 19 18 18 18 18 18 18 18
11 8 8 9 10 10 10 10 10 10 10 11 11 12 12 13 13 13 13 14 15 15 17 18 19 20 21 23 24 25 26 26 26 25 25 26 26 26 26 26 26 26 26 26 26 26 26 26 25 25 24 23 22 22 22 22 21 20 20 19 19 19 19
10 9 9 10 10 11 11 11 12 12 12 12 12 12 13 13 13 13 14 14 15 15 16 16 16 17 18 19 21 22 23 24 24 25 25 25 25 25 25 25 26 26 26 27 27 27 27 27 26 26 25 25 24 23 22 22 23 22 21 20 20 20 20
9 9 10 10 10 10 11 11 12 12 13 13 13 13 13 13 13 14 14 14 14 15 15 15 14 14 15 17 18 20 20 21 22 22 23 24 24 24 24 24 24 25 25 25 25 25 26 26 26 26 26 26 26 25 24 23 23 23 22 22 21 21 20
11 10 10 11 11 10 11 12 12 12 13 13 12 13 13 13 12 12 13 13 13 14 14 14 14 13 14 15 16 18 19 19 19 19 19 20 20 21 21 22 22 22 22 22 22 23 24 25 25 25 25 26 26 26 26 25 24 23 23 23 22 21 21
12 12 11 11 11 11 11 12 12 12 13 12 12 12 13 13 13 13 13 13 13 13 13 14 14 14 14 13 14 15 16 16 17 17 17 17 17 17 17 17 18 19 19 19 20 20 21 23 24 24 23 24 24 24 25 25 24 23 23 22 21 21 21
13 12 11 11 11 11 12 13 13 13 13 12 12 12 13 13 13 13 13 13 13 13 13 14 14 14 14 14 13 14 14 14 15 16 15 15 15 15 15 15 15 15 15 16 17 17 18 19 20 20 19 19 20 20 21 23 23 22 21 21 21 20 20
14 13 12 11 11 12 13 13 13 13 13 12 12 12 12 13 13 12 12 12 13 13 13 14 14 14 14 15 14 14 13 12 13 14 15 15 14 14 14 14 14 13 13 14 15 15 14 13 13 15 15 14 15 16 17 18 19 20 19 19 19 19 19
15 14 13 12 12 12 13 13 13 12 12 13 13 12 12 13 13 13 12 13 13 13 14 14 14 13 14 14 14 14 13 13 12 12 13 14 14 14 14 14 14 14 13 13 14 14 14 13 12 13 13 13 12 13 14 15 16 17 18 18 18 17 18
15 15 14 14 13 13 13 13 13 13 13 13 13 13 13 13 13 13 13 13 13 14 15 15 15 14 14 14 14 14 14 14 14 13 13 13 12 12 13 13 14 13 13 13 13 13 13 13 14 14 14 13 12 12 12 13 14 15 17 17 17 17 17
14 15 15 14 14 14 14 14 14 13 13 13 13 14 13 13 12 13 13 13 14 15 15 15 16 15 15 15 15 15 15 15 15 16 16 14 13 12 12 13 13 13 13 12 13 13 13 13 13 14 14 14 14 13 12 12 13 13 14 15 16 16 16
14 15 15 15 15 15 15 15 15 14 14 14 14 14 14 13 13 13 13 13 14 15 15 15 16 16 16 16 15 15 15 15 15 16 16 16 15 14 14 14 15 15 14 13 13 14 14 14 15 15 15 15 15 14 14 13 13 13 13 14 15 15 16
16 16 16 16 16 16 16 16 16 16 15 15 15 15 15 15 15 14 14 14 14 15 15 16 16 16 16 16 16 16 16 16 16 16 16 16 16 16 17 16 16 16 16 15 15 15 15 16 16 17 17 17 16 16 16 15 15 15 15 15 15 15 16
17 17 16 16 17 17 17 17 17 16 16 16 16 17 16 16 16 16 15 15 15 15 15 16 16 16 16 16 17 17 17 17 17 17 17 17 17 17 18 17 17 17 17 17 16 15 15 16 16 17 17 17 17 18 17 16 16 17 17 17 16 16 17
18 18 17 17 18 18 18 18 18 18 18 18 18 18 18 17 17 17 17 17 17 17 17 17 17 17 17 17 18 18 17 18 18 18 18 18 17 17 18 17 17 18 18 18 17 17 16 16 16 16 16 16 16 17 17 17 17 17 18 17 17 17 18
18 18 18 18 19 19 19 19 19 19 19 19 19 19 19 19 19 18 18 18 18 18 18 18 18 19 19 18 18 19 19 19 19 19 19 18 19 19 19 18 18 19 19 19 19 19 18 18 18 18 17 17 17 17 17 17 17 18 19 19 19 19 19
18 19 19 20 20 20 21 21 21 21 21 21 21 20 20 21 20 20 20 19 19 19 19 19 19 19 20 20 20 20 20 20 20 20 20 20 20 20 21 20 20 21 21 21 21 21 20 20 20 20 20 20 19 18 17 17 17 18 19 19 20 20 21
18 19 19 20 20 21 21 22 22 23 23 23 22 22 22 22 22 22 22 21 21 21 21 20 20 20 21 21 21 21 21 21 22 22 22 22 22 22 22 22 22 22 22 22 22 22 22 22 23 22 21 21 20 20 20 19 19 20 20 21 21 21 22
18 19 19 20 21 21 22 23 23 24 24 24 24 24 24 24 24 24 24 24 23 23 23 22 22 22 22 22 22 22 22 23 23 22 23 23 23 24 24 24 23 23 23 23 23 23 23 24 24 24 24 23 23 24 24 24 23 23 23 23 23 23 23
Wind_Direction
206 203 203 204 204 204 203 203 203 202 200 201 202 202 204 203 200 201 202 202 202 201 200 202 203 204 204 204 205 204 203 202 202 203 201 200 200 201 200 203 205 204 205 209 206 202 207 207 203 206 205 205 209 204 201 205 208 211 212 212 218 222 218
208 205 204 204 204 204 204 203 204 203 200 202 204 203 204 204 201 201 203 204 204 204 203 204 205 206 206 206 207 207 207 206 206 206 205 205 206 207 207 209 210 210 211 213 213 210 211 212 209 209 211 212 213 211 209 210 212 216 218 220 225 229 232
208 207 205 205 205 205 205 205 205 204 202 203 205 204 205 204 203 203 203 205 206 206 206 206 206 208 208 208 208 209 209 209 209 209 210 211 210 210 212 212 214 216 217 218 220 218 218 219 217 215 216 217 216 216 218 219 219 221 223 226 231 236 240
207 208 206 206 206 206 205 205 206 204 203 204 205 205 205 204 203 204 205 206 207 207 207 207 208 210 211 211 211 212 212 211 211 212 213 214 214 215 215 215 217 220 220 223 224 223 223 225 223 222 224 223 222 223 226 225 224 228 229 230 236 244 248
207 207 207 207 207 207 207 206 206 205 204 204 204 205 205 203 203 204 206 206 207 208 208 208 209 210 212 213 213 214 215 214 215 215 217 217 218 219 218 219 222 222 224 226 226 225 227 227 226 228 230 228 227 229 230 229 229 232 233 233 239 246 251
206 206 209 209 207 209 210 207 205 205 205 205 205 205 204 203 204 205 207 208 208 209 209 210 210 211 213 215 216 217 217 218 218 218 220 221 221 222 221 224 227 226 227 228 228 229 230 230 228 230 234 233 232 234 234 234 234 234 234 237 243 247 252
207 207 210 211 208 210 210 208 205 205 206 206 204 204 203 204 205 206 207 208 208 209 210 212 212 212 214 216 217 218 219 220 220 221 222 223 225 225 224 227 230 229 229 229 230 232 234 234 233 233 235 235 236 238 239 239 239 239 239 240 244 246 250
210 210 212 212 210 209 209 210 208 205 206 206 204 204 204 206 206 206 208 208 209 211 212 213 214 214 215 217 219 219 220 221 222 222 224 225 227 229 229 230 232 231 232 232 233 234 236 237 237 236 237 237 238 240 241 241 241 243 243 242 246 247 249
211 214 215 214 212 208 207 209 207 204 206 206 204 205 206 208 207 207 209 210 211 213 214 214 214 214 215 217 219 220 221 223 223 224 226 227 228 230 231 232 233 233 234 235 236 236 237 239 239 239 240 240 240 241 242 242 244 247 247 245 248 250 251
207 211 214 213 211 208 207 208 206 203 204 205 204 205 209 212 211 208 210 212 213 216 217 216 216 216 218 219 221 222 224 225 225 226 227 228 230 231 232 233 234 235 236 237 239 238 238 240 242 243 243 242 243 243 243 244 246 249 249 248 249 251 252
203 206 209 207 205 205 205 206 205 204 204 205 205 207 209 212 213 211 211 213 215 216 216 217 218 219 220 221 222 224 226 227 228 229 229 230 231 233 233 235 235 236 237 238 240 241 240 243 244 245 245 245 245 246 246 247 248 249 249 249 250 252 253
199 197 199 200 201 202 201 203 205 205 206 207 207 209 210 210 211 212 212 215 218 217 214 217 220 221 222 224 226 226 227 228 229 231 232 232 232 233 235 237 238 239 239 239 241 243 243 244 244 244 246 248 248 249 249 249 250 250 250 249 250 251 253
194 191 192 194 196 198 198 201 206 207 208 209 209 212 214 213 213 214 215 217 218 216 216 219 222 223 223 227 229 229 230 230 231 232 233 233 233 234 235 238 240 242 242 241 241 243 245 246 245 245 247 250 251 251 251 251 250 251 251 250 250 251 252
194 194 193 189 189 193 198 202 207 210 211 212 213 214 216 217 217 217 219 219 219 219 220 223 226 227 228 230 231 232 232 233 233 234 234 235 235 235 236 238 239 242 245 245 243 243 245 247 248 248 247 249 252 253 252 251 252 251 251 251 251 251 251
198 199 198 193 190 193 198 202 206 209 212 215 217 217 220 221 221 222 223 222 223 224 225 227 230 231 233 234 234 234 234 235 235 236 237 237 237 237 238 239 239 241 244 247 247 247 247 248 251 252 250 249 251 253 252 252 252 252 251 251 251 251 251
202 202 200 198 196 197 200 204 208 212 217 222 223 223 224 226 225 225 225 225 226 228 230 232 234 234 235 237 237 237 236 236 236 237 237 238 238 238 239 239 240 240 243 245 247 248 250 250 252 254 254 252 251 252 253 252 253 253 252 251 250 252 252
207 206 202 201 202 204 207 210 213 217 220 224 225 226 228 230 229 228 229 230 231 233 234 236 237 238 238 238 238 238 238 238 238 238 238 238 240 241 241 242 242 243 244 246 246 247 248 250 252 254 256 257 256 254 253 252 254 255 254 252 251 251 251
208 211 209 205 204 205 208 210 213 216 216 217 221 225 228 231 232 233 234 235 237 238 239 241 243 244 244 243 242 240 240 240 240 240 240 240 241 243 243 244 245 245 247 248 249 250 250 250 252 252 254 256 257 256 254 253 255 255 253 252 253 253 252
216 215 211 206 201 200 202 204 209 214 214 217 222 224 226 227 228 233 237 238 239 239 240 242 245 247 247 247 246 244 243 242 242 242 242 243 243 245 246 247 247 248 249 250 251 252 252 252 252 252 252 253 255 256 256 256 256 255 252 252 253 254 254
223 216 207 204 202 203 203 203 208 214 217 223 226 225 224 223 223 226 231 233 235 236 238 241 245 248 249 247 246 245 245 245 245 245 245 246 246 248 249 250 250 251 251 252 252 253 252 252 252 251 252 253 253 253 253 254 255 254 253 252 252 252 253
220 212 209 209 209 212 212 209 210 214 219 224 227 226 225 224 225 227 229 232 234 237 240 243 248 253 253 247 243 243 244 244 245 246 248 249 249 249 250 251 251 252 253 253 253 253 252 251 250 250 251 252 253 252 252 253 254 254 254 253 252 253 253
216 212 216 217 215 217 219 219 218 219 222 224 226 228 227 228 231 234 237 239 241 243 246 248 250 253 253 247 243 242 242 243 244 246 248 250 250 250 250 251 252 253 253 253 253 252 251 250 249 249 249 250 251 252 253 253 253 253 254 253 253 252 252
213 215 220 221 218 218 222 225 225 226 228 228 230 232 232 234 237 239 242 244 245 247 248 250 252 253 252 248 245 243 243 244 244 246 247 249 250 251 251 252 253 253 252 252 252 251 249 248 248 248 249 250 250 251 251 253 253 253 253 253 252 251 251
216 218 222 222 219 219 223 226 227 228 229 229 231 234 236 237 239 241 244 247 249 250 250 250 252 254 253 249 246 244 245 245 244 245 246 247 249 250 251 251 251 250 250 251 252 252 250 249 249 249 250 250 251 250 250 251 253 254 252 251 251 250 251
217 218 223 225 223 224 227 227 226 226 227 229 233 235 237 238 239 241 244 247 250 252 252 251 251 251 251 251 249 247 246 244 244 244 245 247 248 248 248 249 249 249 249 249 251 252 251 250 249 247 248 250 251 250 249 248 250 252 251 248 249 250 250
218 220 224 228 230 232 232 232 230 228 228 232 235 236 237 238 240 241 243 246 249 251 252 251 251 250 250 251 251 248 245 243 243 244 244 246 246 246 246 248 249 249 247 248 249 250 253 254 247 240 241 247 248 247 247 245 245 248 249 246 248 250 249
225 226 228 229 232 233 234 235 235 233 232 234 237 239 241 241 241 242 243 244 245 247 248 249 250 250 250 250 250 250 248 246 245 244 244 244 245 246 246 245 246 247 247 249 250 249 250 251 240 230 234 244 247 246 247 245 243 244 245 245 246 248 249
228 228 229 229 230 231 232 233 233 233 233 235 240 245 248 246 243 242 241 241 241 242 244 246 248 249 249 248 248 250 250 250 249 247 247 247 247 248 248 246 246 247 247 249 250 247 244 243 239 236 241 247 249 249 250 250 246 244 243 243 244 245 248
229 229 227 228 229 229 231 231 232 234 236 239 242 246 249 249 246 244 243 243 243 242 241 244 247 248 248 247 246 247 249 250 250 251 251 251 249 250 249 247 247 248 249 250 248 244 243 243 244 244 245 248 252 252 252 251 247 244 242 242 243 245 247
231 230 229 230 230 230 232 234 235 238 241 243 244 245 247 248 247 246 247 247 246 245 243 244 246 248 249 249 248 248 249 250 251 252 253 254 253 251 250 249 249 250 251 251 248 245 245 245 245 245 245 248 251 253 252 248 243 242 241 239 240 243 246
231 231 232 233 232 231 234 237 238 239 241 242 244 245 246 246 246 246 248 249 249 249 248 248 248 248 249 249 249 249 249 250 250 251 253 253 253 251 251 252 253 252 252 253 251 249 249 250 251 250 248 247 247 250 251 249 245 243 242 240 241 243 247
234 234 235 237 237 237 238 239 239 239 240 241 243 245 246 247 247 246 247 248 249 250 250 251 251 250 250 250 250 250 250 250 251 251 251 252 253 253 252 253 255 255 253 253 253 253 255 256 257 256 253 251 250 250 251 250 248 246 245 244 246 248 250
238 236 237 238 241 242 241 241 241 241 241 242 244 246 248 247 246 246 247 249 250 249 248 249 251 251 250 250 252 252 252 252 253 253 253 252 253 253 252 254 256 256 254 254 254 255 257 258 258 256 256 256 254 251 250 249 248 248 248 249 252 253 253
242 241 241 240 241 243 242 242 243 243 243 244 246 248 249 248 246 246 248 250 251 251 249 249 251 252 251 251 253 254 255 255 255 255 255 253 251 251 252 254 255 256 256 256 256 255 255 255 255 255 256 258 256 251 247 247 248 249 250 252 254 256 256
245 245 244 244 245 246 244 243 244 245 246 246 247 248 248 248 248 248 249 251 253 253 253 252 252 253 253 253 254 254 255 256 256 256 256 255 253 253 253 253 253 254 256 257 257 255 254 253 254 254 255 257 257 252 247 247 250 251 253 255 257 258 259
248 247 247 247 247 246 245 244 245 247 248 249 249 249 249 250 250 250 251 253 254 255 255 254 254 254 255 255 255 255 255 255 256 257 256 256 256 255 255 255 255 256 257 257 257 257 255 254 255 257 257 257 255 252 249 250 253 255 256 258 259 260 260
251 250 249 248 247 246 246 246 246 247 248 249 249 250 250 251 250 251 252 254 255 255 256 256 256 256 256 256 257 257 256 256 257 257 256 257 257 258 257 257 257 258 259 259 258 257 256 255 256 258 259 257 254 252 252 254 255 257 259 260 260 261 261
255 253 251 251 250 248 247 246 246 247 248 249 250 250 250 250 250 251 252 254 254 255 255 255 256 257 257 257 257 257 256 256 257 257 257 257 257 258 259 258 258 259 260 260 259 258 257 257 257 258 258 257 255 254 255 256 257 258 260 260 260 261 261